This is the latest recevied weather packets stored in our database for station/object K1WJY. If no packets are shown the sender has not sent any weather packets the latest 10 day(s).
| Time | Temp. | Humidity | Pressure | Rain* | Wind** | Luminosity | Snow |
|---|---|---|---|---|---|---|---|
| 1787864468 | 22.78° C | 85% | 1019.9 hPa | 0 mm | - | 105 W/m² | - |
| 1787864162 | 22.78° C | 85% | 1019.9 hPa | 0 mm | - | 100 W/m² | - |
| 1787863862 | 22.78° C | 85% | 1019.9 hPa | 0 mm | - | 108 W/m² | - |
| 1787863560 | 23.33° C | 84% | 1020.1 hPa | 0 mm | - | 137 W/m² | - |
| 1787863255 | 23.33° C | 83% | 1020 hPa | 0 mm | - | 170 W/m² | - |
| 1787862951 | 23.33° C | 81% | 1020 hPa | 0 mm | - | 219 W/m² | - |
| 1787862646 | 23.89° C | 79% | 1020.1 hPa | 0 mm | - | 160 W/m² | - |
| 1787862341 | 23.89° C | 78% | 1019.6 hPa | 0 mm | - | 200 W/m² | - |
| 1787862037 | 23.89° C | 77% | 1019.7 hPa | 0 mm | - | 214 W/m² | - |
| 1787861736 | 25° C | 77% | 1019.8 hPa | 0 mm | - | 212 W/m² | - |
| 1787861434 | 24.44° C | 77% | 1019.8 hPa | 0 mm | - | 213 W/m² | - |
| 1787861129 | 24.44° C | 77% | 1019.7 hPa | 0 mm | - | 229 W/m² | - |
| 1787860828 | 25° C | 74% | 1019.8 hPa | 0 mm | - | 422 W/m² | - |
| 1787860523 | 25° C | 74% | 1019.8 hPa | 0 mm | - | 400 W/m² | - |
| 1787860218 | 25° C | 72% | 1019.6 hPa | 0 mm | - | 392 W/m² | - |
| 1787859913 | 25° C | 71% | 1019.7 hPa | 0 mm | - | 390 W/m² | - |
| 1787859609 | 25.56° C | 71% | 1019.8 hPa | 0 mm | - | 508 W/m² | - |
| 1787859308 | 25.56° C | 73% | 1019.9 hPa | 0 mm | - | 553 W/m² | - |
| 1787859005 | 25° C | 75% | 1019.9 hPa | 0 mm | - | 534 W/m² | - |
| 1787858700 | 25° C | 77% | 1020 hPa | 0 mm | - | 467 W/m² | - |
| 1787858396 | 25° C | 76% | 1020.1 hPa | 0 mm | - | 399 W/m² | - |
| 1787858095 | 24.44° C | 77% | 1020.1 hPa | 0 mm | - | 555 W/m² | - |
| 1787857791 | 25° C | 76% | 1019.9 hPa | 0 mm | - | 318 W/m² | - |
| 1787857487 | 25° C | 75% | 1020.1 hPa | 0 mm | - | 374 W/m² | - |
| 1787857184 | 25.56° C | 76% | 1020.2 hPa | 0 mm | - | 453 W/m² | - |
* Rain latest hour (hover to see other rain measurements)
** Current wind speed in m/s (hover to see current wind gust speed)